Flag for Afghanistan Weather past 2 weeks in Ghazni, Afghanistan

Now
91 °F

Haze.


Feels Like: 91 °F
Forecast: 49 / 76 °F
Wind: 7 mph from Northeast

Location: Peshawar Airport

Current Time: May 27, 2015 at 11:12:25 AM

Latest Report: May 27, 2015 at 10:30 AM


Visibility: 3 mi

Pressure: 29.77 "Hg

Humidity: 36%

Dew point: 61 °F

Location of GhazniLocation

Historic Weather in Ghazni — Graph

°F

Ghazni temperature yesterday

Maximum temperature yesterday: 99 °F (at 3:30 PM)
Minimum temperature yesterday: 77 °F (at 4:30 AM)
Average temperature yesterday: 88 °F

Past Weeks' High & Low Weather Summary

 TemperatureHumidityPressure
High104 °F (May 21, 2:30 PM)88% (May 12, 1:30 PM)29.92 "Hg (May 12, 1:30 PM)
Low64 °F (May 13, 4:30 AM)19% (May 25, 5:30 PM)29.50 "Hg (May 23, 2:30 PM)
Average84 °F49%29.70 "Hg
* Reported May 12 9:30 AM — May 27 9:30 AM, Ghazni, Weather by CustomWeather, © 2015

Note: Actual official high and low records may vary slightly from our data, if they occured in-between our weather recording intervals... More about our weather records

Advertising

Ghazni weather history for previous 24 hours

 ConditionsComfort  
Time TempWeatherWind HumidityBarometerVisibility
9:30 AM
Wed, May 27
88 °FHaze.7 mph38%29.77 "Hg2 mi
8:30 AM86 °FHaze.5 mph35%29.77 "Hg2 mi
7:30 AM81 °FHaze.5 mph42%29.74 "Hg2 mi
6:30 AM75 °FHaze.5 mph47%29.74 "Hg3 mi
5:30 AM72 °FHaze.5 mph57%29.71 "Hg3 mi
4:30 AM72 °FHaze.7 mph53%29.68 "Hg2 mi
3:30 AM72 °FClear.5 mph53%29.68 "Hg2 mi
2:30 AM75 °FClear.5 mph54%29.68 "Hg2 mi
1:30 AM77 °FClear.7 mph51%29.68 "Hg2 mi
11:30 PM
Tue, May 26
81 °FClear.7 mph42%29.71 "Hg2 mi
10:30 PM82 °FClear.5 mph40%29.71 "Hg2 mi
9:30 PM84 °FClear.5 mph35%29.68 "Hg2 mi
8:30 PM86 °FClear.7 mph31%29.68 "Hg2 mi
7:30 PM88 °FHaze.9 mph29%29.65 "Hg3 mi
6:30 PM91 °FHaze.9 mph26%29.62 "Hg5 mi
5:30 PM97 °FSunny.9 mph23%29.62 "Hg10 mi
4:30 PM99 °FSunny.12 mph21%29.62 "Hg10 mi
3:30 PM99 °FSunny.14 mph21%29.65 "Hg10 mi
2:30 PM97 °FSunny.14 mph22%29.65 "Hg10 mi
1:30 PM97 °FSunny.14 mph22%29.65 "Hg10 mi
12:30 PM95 °FSunny.12 mph25%29.68 "HgN/A
11:30 AM95 °FSunny.12 mph25%29.68 "HgN/A
Weather by CustomWeather, © 2015

See weather overviewHow to use our weather pages